| time (UTC) | temp C | wind direction | speed KPH | gust KPH | rain 1hr cm | rain 24hr cm | rain mn cm | humidity % | barometer mb |
| 20260506112006 | 21 | 0.0 | 0.0 | 0.00 | 0.00 | 0.00 | 28 | 971.0 | |
| 20260506104942 | 21 | 0.0 | 0.0 | 0.00 | 0.00 | 0.00 | 28 | 971.0 | |
| 20260506101918 | 21 | 0.0 | 0.0 | 0.00 | 0.00 | 0.00 | 28 | 971.0 | |
| 20260506094853 | 21 | 0.0 | 0.0 | 0.00 | 0.00 | 0.00 | 28 | 971.0 | |
| 20260506091829 | 21 | 0.0 | 0.0 | 0.00 | 0.00 | 0.00 | 28 | 971.0 | |
| 20260506061604 | 21 | 0.0 | 0.0 | 0.00 | 0.00 | 0.00 | 28 | 971.0 | |
| 20260506044451 | 20 | 0.0 | 0.0 | 0.00 | 0.00 | 0.00 | 32 | 971.0 | |
| 20260506041427 | 18 | 0.0 | 0.0 | 0.00 | 0.00 | 0.00 | 34 | 971.0 | |
| 20260506034403 | 16 | 0.0 | 0.0 | 0.00 | 0.00 | 0.00 | 37 | 971.0 | |
| 20260506031338 | 16 | 0.0 | 0.0 | 0.00 | 0.00 | 0.00 | 39 | 971.0 | |
| 20260506024314 | 15 | 0.0 | 0.0 | 0.00 | 0.00 | 0.00 | 40 | 971.0 | |
| 20260506021250 | 15 | 0 | 0.0 | 0.0 | 0.00 | 0.00 | 0.00 | 41 | 971.0 |
| 20260506014226 | 13 | 0 | 0.0 | 0.0 | 0.00 | 0.00 | 0.00 | 43 | 971.0 |
| 20260506011202 | 13 | 0 | 0.0 | 0.0 | 0.00 | 0.00 | 0.00 | 42 | 971.0 |
| 20260506004138 | 14 | 0 | 0.0 | 0.0 | 0.00 | 0.00 | 0.00 | 41 | 971.0 |
| 20260506001114 | 14 | 0 | 0.0 | 0.0 | 0.00 | 0.00 | 0.00 | 40 | 971.0 |
| 20260505234050 | 15 | 0 | 0.0 | 0.0 | 0.00 | 0.00 | 0.00 | 39 | 971.0 |
| 20260505231025 | 15 | 0 | 0.0 | 0.0 | 0.00 | 0.00 | 0.00 | 39 | 971.0 |
| 20260505224001 | 16 | 0 | 0.0 | 0.0 | 0.00 | 0.00 | 0.00 | 38 | 971.0 |
| 20260505200801 | 18 | 0 | 0.0 | 0.0 | 0.00 | 0.00 | 0.00 | 32 | 970.0 |
| 20260505193736 | 19 | 0 | 0.0 | 0.0 | 0.00 | 0.00 | 0.00 | 31 | 970.0 |
| 20260505183648 | 22 | 0 | 0.0 | 0.0 | 0.00 | 0.00 | 0.00 | 26 | 970.0 |
| 20260505180624 | 24 | 0 | 0.0 | 0.0 | 0.00 | 0.00 | 0.00 | 22 | 970.0 |
| 20260505173559 | 29 | 0.0 | 0.0 | 0.00 | 0.00 | 0.00 | 16 | 969.0 | |
| 20260505170535 | 37 | 0.0 | 0.0 | 0.00 | 0.00 | 0.00 | 11 | 969.0 | |
| 20260505163511 | 62 | 0.0 | 0.0 | 0.00 | 0.00 | 0.00 | 2 | 969.0 | |
| 20260505160447 | 67 | 0.0 | 0.0 | 0.00 | 0.00 | 0.00 | 100 | 969.0 | |
| 20260505150359 | 51 | 0.0 | 0.0 | 0.00 | 0.00 | 0.00 | 5 | 969.0 |